Location: Fort Wayne
(41.1310°N, 85.1290°W)
Time: 14:59:33
(UTC-05:00)

COSMOS 2406 - Visible Passes

Search period start: 20 January 2017 00:00
Search period end: 30 January 2017 00:00
Orbit: 843 x 864 km, 71.0° (Epoch: 19 January)

Date Brightness Start Highest point End Pass type
(mag) Time Alt. Az. Time Alt. Az. Time Alt. Az.
21 Jan 4.3 07:25:10 10° NNW 07:30:42 45° ENE 07:36:12 10° SE visible
22 Jan 4.3 07:13:46 10° NNW 07:19:19 45° ENE 07:24:49 10° SE visible
23 Jan 4.3 07:02:22 10° NNW 07:07:55 46° ENE 07:13:26 10° SE visible
24 Jan 4.2 06:50:57 10° NNW 06:56:31 47° ENE 07:02:03 10° SE visible
25 Jan 4.2 06:39:33 10° NNW 06:45:08 47° ENE 06:50:40 10° SE visible
26 Jan 4.2 06:28:09 10° NNW 06:33:44 48° ENE 06:39:17 10° SE visible
27 Jan 4.1 06:16:44 10° NNW 06:22:21 49° ENE 06:27:54 10° SE visible
28 Jan 4.1 06:05:20 10° NNW 06:10:58 49° ENE 06:16:31 10° SE visible
28 Jan 5.4 20:58:27 10° SSW 20:59:25 15° SSW 20:59:25 15° SSW visible
29 Jan 4.0 05:53:56 10° NNW 05:59:34 50° ENE 06:05:08 10° SE visible
29 Jan 5.0 19:06:24 10° SE 19:07:33 12° ESE 19:07:33 12° ESE visible
29 Jan 4.6 20:47:02 10° SSW 20:49:43 29° SSW 20:49:43 29° SSW visible
